Torna al catalogo

CZ-6A DEB

AttivoSSO
NORAD 56608·DEBRIS·🇨🇳 China

Lanciato Nov 11, 2022 da Taiyuan Satellite Launch Center

Loading…

Prossimi Passaggi (prossime 24 ore)

TLE

AggiornatoSource: Space-Track

Epoca: Sep 14, 2026, 00:14 UTC

1 56608U 22151AEG 26257.00990830  .00001043  00000-0  54310-3 0  9991
2 56608  98.8901 280.5250 0033704  68.6200 291.8565 14.16529965175145

Traccia CZ-6A DEB in tempo reale con AllMySat

Download on the App Store